Погода в Минусинске

Погода в Минусинске : погода сейчас, прогноз погоды и архив. Всё, что Вы хотите узнать о погоде в Минусинске!

Поиск расширенной информации на нашем сайте:

Другие новости

Новости СМИ2

Главная страница сайта

Новости сайта

03.07.2017

Напоминаем, что на нашем специализированном сайте Метеоцентр.Азия вы можете получить высокодетализированные автоматические прогнозы погоды по пунктам России, СНГ и мира в авиационном формате (включающие направление и скорость ветра, видимость, явления погоды, количество и форму облачности, нижнюю и верхнюю границу облачности).

Рекомендуем: http://minprom.ua/ условия ес для украины: вступление украины в сроки и условия.

Погода в Минусинске - сегодня

Время (UTC), дата Ветер
(°,м/с) 
Видим.   Явления Облачность Т
(°С)
Тd
(°С)
f(%) Тe
(°С)
Pmin
(гПа)
dP
(гПа)
Po
(мм)
O2
(г/м3)
Тmin Tmax R s Состояние
почвы
18 21.07.17 тихо ()   н/о    10/0 верхняя 
[Ci fib]
+13.7 +12.6 93 +19  1012.5  737  280           
21 21.07.17 тихо ()   н/о    10/0 верхняя 
[Ci]
+12.8 +12.1 96 +17  1012.7  0.1  737  281           
00 22.07.17 тихо ()   20000 м    10/6 1000 м средняя, верхняя 
[Sc diur, vesp|Ac trans|Ci fib]
+14.4 +13 91 +20  1013.3  0.8  738  280  +11        сухая 
03 22.07.17 тихо ()   20000 м    9/4 1000 м средняя, верхняя 
[Sc|Ac trans|Ci fib]
+20.5 +13.8 65 +28  1012.7  738  274           
06 22.07.17 190 (Ю) 20000 м    10/6 1000 м средняя, верхняя 
[Cu Sc|Ac trans|Ci fib]
+25.1 +12.5 45 +30  1011.3  -0.9  737  270           
09 22.07.17 210 (ЮЗ) 20000 м    8/4 1000 м средняя, верхняя 
[Cu med, cong|Ac trans|Ci fib]
+25.4 +13.5 48 +32  1010.6  -0.7  736  269           
12 22.07.17 320 (СЗ) 20000 м    9/6 600 м кучево-дожд., верхняя 
[Cb cap|Ci fib]
+25.8 +13 45 +32  1010.2  -0.3  736  268    +26.6       
15 22.07.17 030 (СВ) н/о    8/4 600 м кучево-дожд., верхняя 
[Cb cap|Ci fib]
+19.9 +14.2 70 +29  1011  0.2  736  274           
18 22.07.17 тихо ()   н/о    3/0 верхняя 
[Ci fib]
+14.8 +13.4 91 +21  1011.6  736  279           
21 22.07.17 120 (ЮВ) н/о  местами туман поземный  4/0 верхняя 
[Ci fib]
+12.8 +12.2 96 +19  1011.5  -0.3  736  281           
00 23.07.17 тихо ()   20000 м    10/8 1000 м средняя, верхняя 
[Sc|Ac trans|Ci fib]
+15.1 +14 93 +23  1011.1  736  278  +11.9        сухая 
03 23.07.17 260 (З) 20000 м    8/6 1000 м средняя, верхняя 
[Sc|Ac trans|Ci fib]
+20.7 +16.1 75 +32  1010.2  -0.3  736  272           
06 23.07.17 320 (СЗ) 20000 м    8/4 1000 м верхняя 
[Cu Sc|Ci fib]
+25 +16 57 +36  1008.8  -1  735  268           
09 23.07.17 340 (С) 20000 м  гроза, ливневой дождь  8/8 600 м кучево-дожд. 
[Cb cap]
+20.4 +16.4 78 +32  1008.8  -0.4  735  272           
12 23.07.17 тихо ()   20000 м  в посл. час гроза{ливн. осадки}  9/9 600 м кучево-дожд. 
[Cb cap]
+19.1 +16.1 83 +30  1009.2  0.2  735  273    +26.7  0.7     
15 23.07.17 тихо ()   н/о  слаб. ливневой дождь  9/9 600 м кучево-дожд. 
[Cb cap]
+17.1 +14.1 83 +25  1010.4  736  276           
18 23.07.17 тихо ()   н/о  слаб. дождь{ливн. осадки}  10/4 1000 м средняя 
[Sc|As op]
+16.8 +16.1 96 +28  1010.1  -0.3  735  276           
21 23.07.17 тихо ()   н/о  местами туман поземный{дождь}  9/5 1000 м верхняя 
[Sc|Ci fib]
+15.6 +15.3 98 +25  1009.9  -0.4  735  277           
00 24.07.17 тихо ()   20000 м  {дождь}  9/9 1000 м 
[Sc]
+15.8 +15.3 97 +26  1010.7  0.9  736  277  +15.5      влажная 
03 24.07.17 тихо ()   20000 м    9/6 1000 м верхняя 
[Cu med, cong|Ci fib]
+19.9 +16.1 79 +31  1009.7  -0.6  735  273           
06 24.07.17 290 (З) 20000 м    9/9 600 м кучево-дожд. 
[Cb cap]
+23.4 +15.6 62 +34  1009  -0.4  735  269           
09 24.07.17 300 (СЗ) 20000 м  {ливн. осадки}  8/5 600 м кучево-дожд., верхняя 
[Cb cap|Ci ing]
+23 +15.3 62 +33  1008.6  -0.4  735  270           
12 24.07.17 290 (З) 20000 м  {ливн. осадки}  6/3 1000 м верхняя 
[Cu Sc|Ci fib]
+23.4 +13.3 53 +30  1008.4  -0.2  735  270    +24.5  0.0     
15 24.07.17 тихо ()   н/о    8/4 1000 м средняя 
[Sc|Ac trans]
+19.1 +16.3 84 +31  1009.1  0.3  735  273           
18 24.07.17 тихо ()   н/о    ясно 
+14.6 +13.9 96 +22  1009.6  735  278           
Время (UTC), дата Ветер
(°,м/с) 
Видим.   Явления Облачность Т
(°С)
Тd
(°С)
f(%) Тe
(°С)
Pmin
(гПа)
dP
(гПа)
Po
(мм)
O2
(г/м3)
Тmin Tmax R s Состояние
почвы

Для получения пояснительной информации подведите курсор к названию столбца.

ПОГОДА в Минусинске - архив

Всё, что Вы хотите узнать о погоде в Минусинске - удобно и подробно!

Выберите нужную дату (начиная с 1 января 2015* года) и нажмите кнопку "Найти".
Будут отображены архивные сводки погоды по пункту Минусинск, начиная с указанной даты.


Отображать данные в формате CSV (для использования в таблицах Excel)


Внимание! Наш архив погоды предназначен исключительно для личного некоммерческого использования в познавательных целях. Если Вам необходимы официальные справки о состоянии погоды (для производственных, юридических, коммерческих и т.п. целей), обращайтесь в органы Росгидромета.

*Примечание: данная дата относится к архиву по метеостанциям СССР (Россия, СНГ, Балтия).
Архив по метеостанциям Зарубежной Европы и Азии (кроме Китая) хранится 10 дней, по другим регионам земного шара (Китай, Африка, Америка, Австралия, Океания) - 1 день.

Минусинск - район местоположения метеостанции


Название, широта, долгота, высота метеостанции:
Минусинск 53.7°ш. 91.7°д. 254 м над ур. моря [Российская Федерация]

Дополнительная информация

В oтличие oт бoльшинства пoгoдных сайтoв мы публикуем пoдрoбную метеoинфoрмацию в детальнoм прoфессиoнальнoм фoрмате.

Характеристики температуры и влажнoсти вoздуха измеряются на высoте 2 м в тени вдали oт зданий и деревьев.
Скoрoсть ветра измеряется на высoте 10 м (на урoвне рoста челoвека скoрoсть ветра ниже в 1.5-2 раза). Если метеoстанция нахoдится в гoрoде или в лесу, тo скoрoсть ветра занижена на 2-4 м/с пo сравнению с oткрытым местoм. Скoрoсть ветра над акватoриями крупных рек и oзёр, а также на вершинах хoлмoв на 2-5 м/с выше, чем в oбычных услoвиях.
Атмoсфернoе давление в разных тoчках местнoсти мoжет значительнo oтличаться oт давления на метеoстанции, в зависимoсти oт услoвий рельефа (при пoдъёме на 10 м давление пoнижается примернo на 1 мм рт.ст.).